Ketchikan, AK

11:04 PM AKDT on September 22, 2018 (GMT -0800)
Ketchikan International

Weather History for PAKT - October, 2017

Change the Weather History Date:

Monday, October 23, 2017

  Actual Average Record
Temperature  
Mean Temperature 50 °F -  
Max Temperature 59 °F 51 °F 60 °F (1965)
Min Temperature 42 °F 40 °F 30 °F (2004)
Degree Days  
Heating Degree Days 16    
Moisture  
Dew Point 46 °F    
Average Humidity 90    
Maximum Humidity 100    
Minimum Humidity 71    
Precipitation  
Precipitation 0.02 in - - ()
Sea Level Pressure  
Sea Level Pressure 30.00 in    
Wind  
Wind Speed 10 mph (SSE)    
Max Wind Speed 28 mph    
Max Gust Speed 36 mph    
Visibility 8 miles    
Events Rain    
Averages and records for this station are not official NWS values.
T = Trace of Precipitation, MM = Missing Value Source: NWS Daily Summary

Daily Weather History Graph

Daily Weather History Graph

Search for Another Location

Airport or City:

Astronomy

Oct. 23, 2017 Rise Set
Actual Time 7:34 AM AKDT 5:27 PM AKDT
Civil Twilight 6:56 AM AKDT 6:04 PM AKDT
Nautical Twilight 6:13 AM AKDT 6:47 PM AKDT
Astronomical Twilight 5:31 AM AKDT 7:29 PM AKDT
Moon 11:31 AM AKDT 7:56 PM AKDT
Length of Visible Light 11h 08m
Length of Day
9h 53m
Waxing Crescent, 15% of the Moon is Illuminated
Oct 23
Waxing Crescent
Oct 27
First Quarter
Nov 3
Full
Nov 10
Last Quarter
Nov 18
New

Hourly Weather History & Observations

Time (AKDT) Temp. Windchill Dew Point Humidity Pressure Visibility Wind Dir Wind Speed Gust Speed Precip Events Conditions
12:04 AM 46.9 °F - 44.1 °F 90% 30.11 in 10.0 mi SE 9.2 mph - 0.00 in   Overcast
12:19 AM 46.9 °F - 45.0 °F 93% 30.12 in 10.0 mi ESE 10.4 mph - 0.00 in   Overcast
12:53 AM 46.9 °F - 44.1 °F 90% 30.14 in 10.0 mi SSE 8.1 mph - 0.00 in Rain Light Rain
1:53 AM 46.0 °F 43.1 °F 45.0 °F 96% 30.16 in 10.0 mi South 5.8 mph - 0.00 in   Overcast
2:15 AM 46.9 °F - 45.0 °F 93% 30.16 in 10.0 mi South 5.8 mph - N/A   Overcast
2:40 AM 48.0 °F - 46.0 °F 93% 30.16 in 10.0 mi SSE 5.8 mph - N/A   Overcast
2:53 AM 46.9 °F - 45.0 °F 93% 30.16 in 10.0 mi SSE 5.8 mph - N/A   Mostly Cloudy
3:53 AM 46.9 °F - 45.0 °F 93% 30.17 in 10.0 mi SSE 8.1 mph - N/A   Mostly Cloudy
4:12 AM 46.9 °F - 45.0 °F 93% 30.15 in 10.0 mi SSE 6.9 mph - 0.00 in   Overcast
4:53 AM 48.0 °F - 45.0 °F 89% 30.14 in 10.0 mi SSE 5.8 mph - 0.00 in   Overcast
5:21 AM 48.0 °F - 45.0 °F 89% 30.11 in 10.0 mi SSE 5.8 mph - 0.00 in Rain Light Rain
5:31 AM 48.0 °F - 46.0 °F 93% 30.11 in 10.0 mi SSE 6.9 mph - 0.00 in   Overcast
5:53 AM 48.9 °F - 46.0 °F 90% 30.12 in 10.0 mi SE 11.5 mph 21.9 mph 0.00 in   Overcast
6:08 AM 48.2 °F - 44.6 °F 87% 30.10 in 10.0 mi SE 15.0 mph - N/A   Overcast
6:53 AM 48.2 °F - 46.4 °F 93% 30.06 in 5.0 mi SE 13.8 mph 19.6 mph N/A Rain Rain
7:53 AM 46.4 °F 39.0 °F 44.6 °F 93% 30.02 in 6.0 mi SE 19.6 mph 31.1 mph N/A Rain Rain
8:53 AM 44.6 °F 37.4 °F 42.8 °F 93% 29.95 in 4.0 mi SE 16.1 mph 29.9 mph N/A Rain Rain
9:53 AM 42.8 °F 34.8 °F 39.2 °F 87% 29.87 in 4.0 mi SSE 17.3 mph 23.0 mph N/A Rain Rain
10:53 AM 44.6 °F 36.4 °F 42.8 °F 93% 29.81 in 4.0 mi SSE 20.7 mph 28.8 mph N/A Rain Rain
11:53 AM 46.4 °F 39.8 °F 44.6 °F 93% 29.78 in 4.0 mi SSE 16.1 mph 25.3 mph N/A Rain Rain
12:35 PM 48.2 °F - 46.4 °F 93% 29.74 in 2.0 mi SE 23.0 mph 34.5 mph N/A Rain Heavy Rain
12:53 PM 48.2 °F - 48.2 °F 100% 29.73 in 1.0 mi SSE 16.1 mph 28.8 mph N/A Rain Heavy Rain
1:53 PM 53.6 °F - 51.8 °F 94% 29.71 in 2.0 mi SE 27.6 mph 34.5 mph N/A Rain Light Rain
2:53 PM 55.4 °F - 53.6 °F 94% 29.70 in 3.0 mi SE 23.0 mph 35.7 mph N/A Rain Light Rain
3:53 PM 55.4 °F - 53.6 °F 94% 29.73 in 3.0 mi SE 23.0 mph 29.9 mph N/A Rain Light Rain
4:53 PM 57.2 °F - 53.6 °F 88% 29.78 in 8.0 mi ESE 16.1 mph 27.6 mph N/A Rain Light Rain
5:53 PM 55.9 °F - 48.0 °F 75% 29.84 in 10.0 mi SSE 4.6 mph - 0.00 in   Overcast
6:53 PM 52.0 °F - 46.0 °F 80% 29.90 in 10.0 mi SSE 6.9 mph - N/A   Scattered Clouds
7:53 PM 53.1 °F - 44.1 °F 71% 29.99 in 10.0 mi Variable 4.6 mph - N/A   Overcast
8:53 PM 50.0 °F - 46.0 °F 86% 30.06 in 5.0 mi Variable 6.9 mph - 0.01 in Rain Light Rain
9:53 PM 48.9 °F - 46.9 °F 93% 30.13 in 10.0 mi SE 4.6 mph - 0.01 in   Overcast
10:53 PM 48.9 °F - 45.0 °F 86% 30.18 in 10.0 mi SE 4.6 mph - N/A   Overcast
11:53 PM 48.0 °F - 46.0 °F 93% 30.22 in 10.0 mi SSE 4.6 mph - 0.00 in Rain Light Rain